Dewpoint
64 63 60 57 56 56 56 58 61 58 58 60 59 57 57 59 63 63 61 62 64 62 61 60 59 59 58 57 57 54 53 51 52 52 51 51 50 50 50 50 50 50 50
63 63 62 60 59 58 57 60 59 58 58 61 57 55 56 61 61 60 61 62 63 62 61 59 59 58 57 57 54 54 51 52 51 51 50 50 49 49 48 48 48 49 49
62 62 61 60 60 61 60 58 58 57 57 57 56 56 57 60 59 60 60 60 61 61 61 60 59 58 58 55 54 51 51 51 50 49 48 48 48 47 47 47 48 49 48
62 61 61 60 60 60 60 58 57 56 56 57 56 56 55 60 59 59 58 59 59 58 60 61 59 58 56 56 53 52 50 49 48 47 47 47 47 46 46 46 47 47 47
62 61 61 60 60 60 59 58 57 57 55 55 53 53 51 55 59 57 57 57 58 58 58 59 59 57 56 54 52 51 50 48 46 46 45 45 46 46 46 46 46 46 47
60 60 60 60 60 58 56 57 57 56 55 53 50 48 48 48 52 55 57 57 58 57 57 55 54 54 56 53 52 50 48 46 45 44 44 44 45 45 45 45 46 46 46
60 60 60 59 59 58 55 56 55 55 52 51 49 49 48 45 45 47 50 56 57 57 55 52 50 50 52 53 50 48 46 44 43 43 43 44 45 45 45 46 46 46 46
58 59 59 58 58 56 54 55 54 53 52 52 51 49 47 48 46 43 46 48 48 51 52 50 48 47 46 45 45 46 45 43 42 42 42 43 45 45 45 46 46 46 46
57 58 59 58 57 56 54 54 54 53 51 51 53 50 46 46 45 45 44 43 45 48 49 49 48 46 44 43 44 43 43 41 40 40 41 43 44 45 45 46 46 46 45
55 57 57 58 57 56 55 54 54 54 52 51 52 52 50 47 46 42 44 44 44 44 46 46 45 42 41 42 42 42 41 40 39 40 41 42 44 45 45 45 45 45 44
53 54 57 58 57 57 55 55 55 54 54 52 52 49 48 48 47 44 42 42 42 43 44 44 42 39 39 40 41 42 40 39 38 38 40 42 44 45 45 45 44 44 43
53 53 54 56 57 55 55 54 54 54 53 52 52 49 49 47 47 46 43 42 42 41 40 41 40 38 38 39 40 41 39 37 36 37 39 41 42 42 43 43 43 43 42
52 53 54 55 54 55 55 54 54 53 53 52 51 50 49 48 46 44 44 41 42 41 41 41 41 38 36 37 39 41 39 36 35 35 38 39 39 39 39 40 42 42 42
51 53 54 54 55 55 55 54 54 54 54 53 51 50 48 46 46 46 45 43 41 39 40 38 39 38 36 36 38 39 35 36 34 34 35 35 35 36 37 39 39 40 40
52 52 53 54 54 54 55 54 53 52 53 52 52 50 49 48 47 48 46 46 43 38 37 38 37 36 36 38 39 33 32 34 33 31 32 33 33 35 37 37 38 38 38
52 52 52 54 54 54 54 53 52 52 52 52 51 50 49 48 47 47 46 45 45 42 39 37 35 36 34 36 38 31 32 31 29 30 31 32 33 35 34 35 36 36 37
52 52 52 52 53 52 52 52 51 51 51 50 51 49 48 47 47 46 46 45 43 43 37 36 35 35 33 32 31 30 30 27 27 28 29 32 34 34 33 34 35 35 35
52 52 52 52 52 52 52 51 50 50 50 49 49 48 46 46 45 45 45 43 43 41 37 33 33 33 32 31 30 28 26 21 24 25 27 31 34 34 32 33 33 33 33
51 51 51 51 51 51 50 50 50 49 49 48 48 47 45 45 43 43 43 42 41 41 39 35 34 33 31 29 28 27 27 26 25 26 25 29 32 30 31 32 32 31 30
50 50 50 50 50 50 50 49 49 48 47 46 46 46 44 44 42 41 40 39 40 39 37 34 33 32 30 29 30 28 27 27 26 23 24 26 27 26 27 28 28 27 27
48 49 49 49 49 48 48 48 47 45 43 41 40 41 41 42 42 41 40 39 38 37 35 33 32 32 31 30 29 29 26 25 25 25 23 23 23 23 24 26 25 25 28
43 43 45 46 46 46 47 47 45 41 39 38 38 39 40 41 42 42 40 40 38 36 34 32 30 31 30 26 27 27 25 24 23 23 21 21 23 21 22 23 26 27 28
41 41 41 42 42 43 47 46 43 39 37 37 37 37 37 38 38 36 37 37 36 35 32 30 30 26 26 26 27 25 23 23 22 23 22 21 22 21 22 21 26 27 27
39 39 40 40 41 43 45 43 40 37 37 37 36 36 35 34 33 31 31 30 30 30 30 28 28 27 26 25 26 25 25 23 23 23 23 22 22 21 22 22 27 25 27
39 39 40 40 41 43 42 41 37 36 35 34 35 34 34 34 36 36 32 31 31 30 31 32 31 31 30 28 26 26 24 25 24 20 22 22 22 21 21 21 21 25 27
39 39 39 39 40 39 40 39 36 34 33 34 35 36 38 36 38 35 29 29 29 29 29 27 26 25 26 26 27 25 26 23 24 22 23 21 23 22 19 21 21 22 22
Lifted_Index
-1 -1 0 1 2 2 3 2 2 2 2 2 2 2 3 3 3 3 3 3 3 4 5 6 6 7 8 8 9 10 11 11 12 12 12 12 12 12 12 12 12 12 12
-2 -1 0 1 2 2 2 2 1 2 2 2 2 3 3 3 3 3 3 3 4 4 5 5 6 7 8 9 10 11 11 12 12 12 12 13 13 12 12 12 12 12 12
-1 -1 -0 1 1 2 2 1 1 1 2 2 2 3 3 3 3 3 3 4 4 4 5 5 6 7 8 9 10 11 12 12 12 13 13 13 13 13 13 12 12 12 12
-0 -1 -0 0 0 1 1 1 1 2 2 2 2 3 3 3 3 3 4 4 4 5 5 5 6 7 8 9 10 11 12 12 13 13 13 13 13 13 13 13 13 13 13
1 1 0 0 0 0 1 1 1 2 2 2 3 3 3 3 3 4 4 4 5 5 5 6 6 7 8 9 10 11 12 13 13 14 14 14 13 13 13 13 13 13 13
1 1 1 1 1 1 1 1 1 2 2 2 3 3 3 3 3 4 4 4 5 5 5 6 7 8 8 9 10 11 12 13 14 14 14 14 13 13 13 13 13 13 13
1 1 1 1 1 1 1 2 2 3 3 3 3 3 3 3 3 4 4 4 5 5 6 6 7 8 8 9 10 11 13 14 14 14 14 14 13 13 13 13 13 13 13
1 1 2 1 1 1 2 2 3 3 3 4 4 3 4 4 4 4 4 4 4 5 6 7 7 8 8 9 10 11 13 14 15 15 14 14 14 13 13 13 13 13 13
2 2 2 2 2 2 2 2 3 3 3 4 4 4 4 4 4 4 4 4 5 5 6 7 7 8 8 9 10 11 13 15 15 15 14 14 14 13 13 13 13 13 13
3 2 2 2 2 2 2 2 3 3 4 4 4 4 4 4 4 4 4 5 5 5 6 7 7 7 8 9 9 11 13 15 16 15 15 14 13 13 13 13 13 13 14
3 3 3 2 2 2 2 2 3 3 4 4 4 4 4 4 4 4 4 5 5 5 6 7 7 7 8 8 9 11 13 15 16 16 15 14 14 13 13 14 14 14 15
4 4 3 3 3 3 3 3 3 4 4 4 4 4 4 4 4 4 5 5 5 6 6 7 7 7 8 9 10 11 13 15 16 16 16 15 14 14 15 15 15 16 16
3 3 3 3 3 3 3 3 4 4 4 4 4 4 4 4 4 4 5 5 5 6 6 7 7 7 8 9 10 12 13 15 16 16 16 16 15 15 17 17 17 17 17
3 3 3 3 3 3 3 3 4 4 4 4 4 4 4 3 4 4 4 4 5 5 6 6 7 7 8 9 11 13 14 15 15 16 16 16 16 17 18 19 18 18 18
3 3 3 3 3 3 3 3 3 4 4 4 4 4 4 3 3 3 4 4 4 5 5 5 6 7 8 9 11 12 13 14 14 15 15 16 17 18 19 19 19 19 19
3 3 3 3 3 3 3 3 3 4 4 4 4 4 4 3 3 3 3 3 4 4 4 5 6 6 7 8 10 11 12 13 14 14 15 16 17 19 20 20 20 19 19
3 3 3 3 3 3 3 4 4 4 4 4 4 4 4 3 3 3 3 3 4 4 4 5 6 6 7 8 9 10 12 13 14 14 16 17 18 19 20 20 20 20 20
3 3 3 3 3 3 3 4 4 4 4 4 4 4 4 3 3 3 3 3 3 4 4 4 5 6 7 8 9 10 11 12 13 15 17 18 19 20 20 20 20 20 20
3 3 3 3 3 3 3 4 4 4 4 4 4 4 3 3 3 3 3 3 3 4 4 4 5 6 7 8 9 10 11 12 14 16 18 19 19 20 20 20 19 19 19
3 3 3 3 4 4 3 4 4 4 4 4 4 4 3 3 3 3 3 3 4 4 4 4 5 6 7 8 9 10 10 12 14 17 18 18 19 19 19 19 19 19 19
3 3 3 4 4 4 3 4 4 4 4 4 4 3 3 3 3 3 3 4 4 4 4 5 5 6 6 8 9 10 11 12 14 16 18 18 18 18 18 19 19 19 19
3 4 4 4 4 4 4 4 4 4 4 4 4 3 3 3 3 3 4 4 5 5 5 5 5 6 7 9 11 12 13 13 14 16 17 18 18 18 18 18 19 19 19
4 4 4 4 4 4 4 4 4 4 4 3 3 3 3 3 3 3 4 4 5 6 7 7 8 8 9 11 13 13 14 15 15 17 17 17 17 17 18 19 19 20 20
5 5 5 5 5 4 4 4 4 4 4 3 3 3 3 3 3 4 4 5 6 8 9 10 11 12 12 14 15 15 16 16 16 17 17 17 17 17 18 19 19 20 20
6 6 6 6 6 5 5 5 4 4 4 4 4 4 4 4 5 5 5 6 7 9 11 12 13 14 15 16 17 17 16 16 16 16 17 17 17 17 18 18 19 20 20
6 6 6 6 6 6 6 5 4 4 4 4 5 5 6 6 6 7 7 7 7 9 11 13 14 15 16 17 18 17 16 16 15 16 17 18 18 18 17 18 19 20 20